FALCON 9 DEB (53295 NORAD) Tracking and Keplerian Element Data

This shows tracking and keplerian element data for the satellite.

Feedback or suggestion? Click here.




ElementValue
Catalog53295
NameFALCON 9 DEB
Epoch Orbit352
Epoch Day227.38001904
Epoch Year2022
RAAN290.5965
Inclination53.2073
Eccentricity0.0003798
Argument of Perigee139.0964
Mean Anonmoly221.0374
Mean Motion16.49046904
Decay Rate0.19938335
L11 53295U 22086BF 22227.38001904 .19938335 12550-4 26920-3 0 9992
L22 53295 53.2073 290.5965 0003798 139.0964 221.0374 16.49046904 3523



Live tracking and technical data element details for FALCON 9 DEB (NORAD 53295). FALCON 9 DEB can be tracked NOW for your location showing map with azimuth and elevation plus other details from your city location.







IsCatalogInMostPopularTable: catalog: 53295, numindb: 7
Update: records affected: 1



GetName: 53295 FALCON 9 DEB

Hit Count: updated at: Thu, 08 Dec 2022 09:31:52 GMT